星链-35328(STARLINK-35328)

导读

STARLINK-35328是美国SpaceX公司星链(Starlink)卫星互联网项目的一颗低轨通信卫星,于2025年9月19日发射入轨。星链计划旨在构建覆盖全球的低轨卫星互联网星座,为全球偏远地区、海洋航空等场景提供高速低延迟宽带服务。该卫星是星链星座扩容的组成部分,纳入低轨星座网络,推动全球卫星互联网覆盖范围进一步扩展,支撑SpaceX全球联网服务布局。

基本信息
目录编号:
65652
目录名称:
STARLINK-35328
国际标识:
2025-211A
轨道中心:
EARTH
卫星名称:
星链-35328
卫星全名:
星链-35328(STARLINK-35328)
卫星状态:
在轨 (已飞行267 天)
发射日期:
2025-09-19 UTC
国别 :
美国 (US)
星等 :
--
轨道信息
数据来源 国际轨道数据
星历时间: 2026-06-13T10:13:35+0800
11小时前
查看轨道信息
半长轴: 6927.619km
偏心率: 0.000256
轨道倾角: 97.365°
近地点辐角 115.164°
升交点赤经 207.197°
平近点角 244.985°
近地点: 547.708km
远地点: 551.256km
周期: 95.639分钟
每日圈数: 15.056596
详细信息
固有亮度:
5
最大亮度:
2.5
卫星平台:
Starlink V1.0
覆盖范围:
全球
运营商:
太空探索技术公司
运营商所在国:
美国
制造商(研发单位):
太空探索技术公司
制造商所在国:
美国
使用方式:
暂无
卫星简介
Starlink 计划是 SpaceX 推出的全球卫星互联网项目,通过发射低轨道卫星,为全球尤其是偏远地区提供高速、低延迟的互联网服务。自 2019 年起,Starlink 已部署数千颗卫星,旨在缩小全球数字鸿沟,推动互联网普及。该项目还为军事、航空等行业提供通信支持,带来广泛经济效益。
2D轨道图
3D轨道图
轨道高度分析图
轨道倾角分析图
轨道综合分析图
查看轨道综合分析图